When you browse on this site, cookies collect data to enhance your experience and personalize the content and advertising you see.
Visit our Privacy Policy to learn more. By continuing to use the site, you agree to this use of cookies and data.
  • In Netherlands
  • List of Countries
  • For 7 days
  • Water Temperature
  • Satellite Maps
  • Weather Map
  • Weather Widgets
  • user-avatar
    Login

    Hourly Weather Koudougou

    Today, 21 May, Tuesday

    Time Temperature Precipitation Wind Pressure Humidity
    00:00 +35°C° 0 mm 4 mps 731 mmHg 50%
    01:00 +35°C° 0 mm 4 mps 731 mmHg 52%
    02:00 +35°C° 0 mm 3 mps 731 mmHg 53%
    03:00 +34°C° 0 mm 3 mps 731 mmHg 55%
    04:00 +34°C° 0 mm 4 mps 731 mmHg 56%
    05:00 +33°C° 0 mm 4 mps 731 mmHg 58%
    06:00 +33°C° 0 mm 4 mps 731 mmHg 58%
    07:00 +34°C° 0 mm 4 mps 732 mmHg 55%
    08:00 +35°C° 0 mm 4 mps 732 mmHg 53%
    09:00 +36°C° 0 mm 5 mps 732 mmHg 50%
    10:00 +37°C° 0 mm 4 mps 732 mmHg 45%
    11:00 +38°C° 0 mm 3 mps 732 mmHg 41%
    12:00 +39°C° 0 mm 3 mps 732 mmHg 39%
    13:00 +39°C° 0 mm 3 mps 731 mmHg 36%
    14:00 +40°C° 0 mm 2 mps 731 mmHg 33%
    15:00 +41°C° 0 mm 1 mps 730 mmHg 30%
    16:00 +41°C° 0 mm 1 mps 730 mmHg 30%
    17:00 +40°C° 0 mm 1 mps 730 mmHg 30%
    18:00 +40°C° 0 mm 1 mps 730 mmHg 30%
    19:00 +40°C° 0 mm 2 mps 730 mmHg 32%
    20:00 +39°C° 0 mm 3 mps 731 mmHg 33%
    21:00 +39°C° 0 mm 3 mps 731 mmHg 35%
    22:00 +38°C° 0 mm 4 mps 731 mmHg 37%
    23:00 +38°C° 0 mm 4 mps 731 mmHg 39%

    Tomorrow, 22 May, Wednesday

    Time Temperature Precipitation Wind Pressure Humidity
    00:00 +37°C° 0 mm 4 mps 731 mmHg 41%
    01:00 +37°C° 0 mm 4 mps 731 mmHg 43%
    02:00 +36°C° 0 mm 4 mps 730 mmHg 44%
    03:00 +35°C° 0 mm 4 mps 730 mmHg 45%
    04:00 +35°C° 1.5 mm 3 mps 730 mmHg 49%
    05:00 +34°C° 1.5 mm 2 mps 731 mmHg 52%
    06:00 +32°C° 1.5 mm 1 mps 731 mmHg 55%
    07:00 +34°C° 0.1 mm 2 mps 732 mmHg 54%
    08:00 +34°C° 0.1 mm 4 mps 732 mmHg 52%
    09:00 +35°C° 0.1 mm 5 mps 732 mmHg 51%
    10:00 +36°C° 0 mm 5 mps 732 mmHg 47%
    11:00 +37°C° 0 mm 5 mps 732 mmHg 43%
    12:00 +40°C° 0 mm 4 mps 732 mmHg 39%
    13:00 +40°C° 0 mm 4 mps 731 mmHg 36%
    14:00 +40°C° 0 mm 3 mps 731 mmHg 34%
    15:00 +40°C° 0 mm 2 mps 730 mmHg 31%
    16:00 +40°C° 0 mm 2 mps 730 mmHg 32%
    17:00 +40°C° 0 mm 2 mps 730 mmHg 32%
    18:00 +39°C° 0 mm 2 mps 730 mmHg 33%
    19:00 +39°C° 0 mm 2 mps 730 mmHg 34%
    20:00 +39°C° 0 mm 2 mps 731 mmHg 36%
    21:00 +38°C° 0 mm 3 mps 731 mmHg 37%
    22:00 +38°C° 0 mm 3 mps 731 mmHg 40%
    23:00 +37°C° 0 mm 4 mps 731 mmHg 42%

    Day after tomorrow, 23 May, Thursday

    Time Temperature Precipitation Wind Pressure Humidity
    00:00 +36°C° 0 mm 4 mps 731 mmHg 45%
    01:00 +36°C° 0 mm 4 mps 731 mmHg 48%
    02:00 +35°C° 0 mm 4 mps 731 mmHg 50%
    03:00 +34°C° 0 mm 4 mps 730 mmHg 53%
    04:00 +34°C° 0 mm 4 mps 731 mmHg 55%
    05:00 +33°C° 0 mm 4 mps 731 mmHg 57%
    06:00 +33°C° 0 mm 3 mps 731 mmHg 60%
    07:00 +34°C° 0 mm 3 mps 731 mmHg 56%
    08:00 +35°C° 0 mm 2 mps 732 mmHg 52%
    09:00 +36°C° 0 mm 2 mps 732 mmHg 48%
    10:00 +37°C° 0 mm 3 mps 732 mmHg 44%
    11:00 +38°C° 0 mm 3 mps 732 mmHg 41%
    12:00 +39°C° 0 mm 3 mps 732 mmHg 37%
    13:00 +39°C° 0 mm 3 mps 731 mmHg 36%
    14:00 +40°C° 0 mm 3 mps 730 mmHg 35%
    15:00 +40°C° 0 mm 2 mps 730 mmHg 33%
    16:00 +40°C° 0 mm 3 mps 730 mmHg 34%
    17:00 +39°C° 0 mm 3 mps 730 mmHg 35%
    18:00 +39°C° 0 mm 3 mps 730 mmHg 36%
    19:00 +39°C° 0 mm 3 mps 730 mmHg 38%
    20:00 +38°C° 0 mm 3 mps 731 mmHg 40%
    21:00 +37°C° 0 mm 3 mps 731 mmHg 42%
    22:00 +37°C° 0 mm 3 mps 731 mmHg 44%
    23:00 +36°C° 0 mm 3 mps 731 mmHg 46%

    24 May, Friday

    Time Temperature Precipitation Wind Pressure Humidity
    00:00 +36°C° 0 mm 4 mps 731 mmHg 48%
    01:00 +35°C° 0 mm 4 mps 731 mmHg 50%
    02:00 +35°C° 0 mm 5 mps 731 mmHg 53%
    03:00 +34°C° 0 mm 6 mps 730 mmHg 56%
    04:00 +33°C° 0.5 mm 6 mps 731 mmHg 59%
    05:00 +32°C° 0.5 mm 6 mps 731 mmHg 62%
    06:00 +30°C° 0.5 mm 6 mps 731 mmHg 65%
    07:00 +30°C° 1.3 mm 5 mps 732 mmHg 63%
    08:00 +32°C° 1.3 mm 4 mps 732 mmHg 61%
    09:00 +31°C° 1.3 mm 3 mps 733 mmHg 59%
    10:00 +34°C° 0 mm 3 mps 732 mmHg 54%
    11:00 +35°C° 0 mm 4 mps 732 mmHg 49%
    12:00 +37°C° 0 mm 4 mps 732 mmHg 44%
    13:00 +37°C° 0 mm 4 mps 731 mmHg 41%
    14:00 +38°C° 0 mm 4 mps 730 mmHg 39%
    15:00 +40°C° 0 mm 4 mps 730 mmHg 37%
    16:00 +39°C° 0 mm 3 mps 730 mmHg 38%
    17:00 +38°C° 0 mm 3 mps 730 mmHg 38%
    18:00 +38°C° 0 mm 2 mps 730 mmHg 39%
    19:00 +37°C° 0 mm 3 mps 730 mmHg 41%
    20:00 +37°C° 0 mm 3 mps 731 mmHg 43%
    21:00 +36°C° 0 mm 3 mps 731 mmHg 45%
    22:00 +36°C° 0 mm 3 mps 731 mmHg 48%
    23:00 +35°C° 0 mm 4 mps 731 mmHg 50%

    25 May, Saturday

    Time Temperature Precipitation Wind Pressure Humidity
    00:00 +35°C° 0 mm 4 mps 731 mmHg 53%
    01:00 +34°C° 0.1 mm 4 mps 731 mmHg 55%
    02:00 +34°C° 0.1 mm 4 mps 731 mmHg 57%
    03:00 +33°C° 0.1 mm 4 mps 731 mmHg 59%
    04:00 +32°C° 4.2 mm 5 mps 731 mmHg 64%
    05:00 +30°C° 4.2 mm 6 mps 731 mmHg 69%
    06:00 +29°C° 4.2 mm 6 mps 732 mmHg 74%
    07:00 +29°C° 0.2 mm 7 mps 732 mmHg 73%
    08:00 +31°C° 0.2 mm 8 mps 733 mmHg 72%
    09:00 +31°C° 0.2 mm 8 mps 733 mmHg 70%
    10:00 +32°C° 0 mm 7 mps 733 mmHg 65%
    11:00 +33°C° 0 mm 7 mps 733 mmHg 60%
    12:00 +34°C° 0 mm 6 mps 732 mmHg 55%
    13:00 +35°C° 0 mm 5 mps 732 mmHg 50%
    14:00 +36°C° 0 mm 4 mps 731 mmHg 44%
    15:00 +37°C° 0 mm 3 mps 730 mmHg 38%
    16:00 +37°C° 0 mm 3 mps 730 mmHg 38%
    17:00 +37°C° 0 mm 3 mps 730 mmHg 38%
    18:00 +37°C° 0 mm 2 mps 731 mmHg 38%
    19:00 +36°C° 0 mm 2 mps 731 mmHg 41%
    20:00 +35°C° 0 mm 2 mps 731 mmHg 44%
    21:00 +35°C° 0 mm 2 mps 731 mmHg 47%
    22:00 +34°C° 0 mm 3 mps 731 mmHg 50%
    23:00 +34°C° 0 mm 3 mps 731 mmHg 53%

    26 May, Sunday

    Time Temperature Precipitation Wind Pressure Humidity
    00:00 +33°C° 0 mm 4 mps 731 mmHg 56%
    01:00 +33°C° 0 mm 4 mps 731 mmHg 57%
    02:00 +32°C° 0 mm 4 mps 730 mmHg 59%
    03:00 +31°C° 0 mm 3 mps 730 mmHg 61%
    04:00 +30°C° 0 mm 4 mps 730 mmHg 64%
    05:00 +30°C° 0 mm 4 mps 731 mmHg 67%
    06:00 +30°C° 0 mm 4 mps 731 mmHg 70%
    07:00 +32°C° 0 mm 5 mps 732 mmHg 64%
    08:00 +33°C° 0 mm 5 mps 732 mmHg 58%
    09:00 +34°C° 0 mm 5 mps 733 mmHg 52%
    10:00 +36°C° 0 mm 5 mps 732 mmHg 48%
    11:00 +37°C° 0 mm 5 mps 732 mmHg 43%
    12:00 +39°C° 0 mm 5 mps 731 mmHg 38%
    13:00 +40°C° 0 mm 5 mps 731 mmHg 37%
    14:00 +40°C° 0 mm 4 mps 730 mmHg 35%
    15:00 +41°C° 0 mm 4 mps 729 mmHg 33%
    16:00 +41°C° 0 mm 4 mps 729 mmHg 34%
    17:00 +40°C° 0 mm 4 mps 730 mmHg 35%
    18:00 +40°C° 0 mm 4 mps 730 mmHg 36%
    19:00 +38°C° 0 mm 4 mps 730 mmHg 38%
    20:00 +37°C° 0 mm 4 mps 731 mmHg 41%
    21:00 +36°C° 0 mm 4 mps 731 mmHg 43%
    22:00 +36°C° 0 mm 3 mps 731 mmHg 44%
    23:00 +36°C° 0 mm 3 mps 731 mmHg 44%
    Show more